Niagara Falls, NY

5:44 AM EDT on June 24, 2017 (GMT -0400)
Niagara Falls International

Weather History for KIAG - November, 2012

Change the Weather History Date:

Thursday, November 1, 2012

  Actual Average Record
Temperature  
Mean Temperature 43 °F -  
Max Temperature 44 °F 50 °F 72 °F (2016)
Min Temperature 41 °F 35 °F 28 °F (1993)
Degree Days  
Heating Degree Days 22    
Moisture  
Dew Point 39 °F    
Average Humidity 85    
Maximum Humidity 92    
Minimum Humidity 76    
Precipitation  
Precipitation 0.16 in - - ()
Sea Level Pressure  
Sea Level Pressure 29.53 in    
Wind  
Wind Speed 13 mph (West)    
Max Wind Speed 21 mph    
Max Gust Speed 25 mph    
Visibility 9 miles    
Events Rain    
Averages and records for this station are not official NWS values.
T = Trace of Precipitation, MM = Missing Value Source: NWS Daily Summary

Daily Weather History Graph

Daily Weather History Graph

Search for Another Location

Airport or City:

Trip Planner

Search our weather history database for the weather conditions in past years. The results will help you decide how hot, cold, wet, or windy it might be!

Date:

Astronomy

Nov. 01, 2012 Rise Set
Actual Time 7:51 AM EDT 6:06 PM EDT
Civil Twilight 7:21 AM EDT 6:36 PM EDT
Nautical Twilight 6:47 AM EDT 7:10 PM EDT
Astronomical Twilight 6:14 AM EDT 7:43 PM EDT
Moon 7:59 PM EDT (11/1) 10:25 AM EDT (11/1)
Length of Visible Light 11h 15m
Length of Day
10h 15m
Waning Gibbous, 93% of the Moon is Illuminated
Nov 1
Waning Gibbous
Nov 6
Last Quarter
Nov 13
New
Nov 20
First Quarter
Nov 28
Full

Hourly Weather History & Observations

Time (EDT) Temp. Windchill Dew Point Humidity Pressure Visibility Wind Dir Wind Speed Gust Speed Precip Events Conditions
12:17 AM 44.6 °F 38.8 °F 41.0 °F 87% 29.45 in 10.0 mi West 11.5 mph - 0.00 in Rain Light Rain
12:53 AM 43.0 °F 37.2 °F 39.9 °F 89% 29.48 in 7.0 mi West 10.4 mph - 0.00 in Rain Light Rain
1:22 AM 42.8 °F 36.6 °F 39.2 °F 87% 29.45 in 6.0 mi West 11.5 mph - 0.01 in Rain Light Rain
1:43 AM 42.8 °F 36.2 °F 39.2 °F 87% 29.45 in 10.0 mi West 12.7 mph - 0.01 in Rain Light Rain
1:53 AM 43.0 °F 37.2 °F 39.9 °F 89% 29.48 in 10.0 mi West 10.4 mph - 0.01 in Rain Light Rain
2:00 AM 42.8 °F 36.6 °F 39.2 °F 87% 29.45 in 10.0 mi West 11.5 mph - 0.00 in Rain Light Rain
2:53 AM 43.0 °F 36.4 °F 39.9 °F 89% 29.48 in 10.0 mi West 12.7 mph - 0.02 in Rain Light Rain
3:53 AM 43.0 °F 36.0 °F 39.9 °F 89% 29.48 in 9.0 mi West 13.8 mph - 0.01 in Rain Light Rain
4:37 AM 42.8 °F 34.0 °F 39.2 °F 87% 29.46 in 9.0 mi West 20.7 mph 25.3 mph 0.01 in Rain Light Rain
4:46 AM 42.8 °F 35.8 °F 39.2 °F 87% 29.46 in 10.0 mi West 13.8 mph - 0.01 in Rain Light Rain
4:53 AM 42.1 °F 34.5 °F 39.0 °F 89% 29.49 in 9.0 mi West 15.0 mph - 0.01 in Rain Light Rain
5:12 AM 42.8 °F 35.4 °F 39.2 °F 87% 29.47 in 6.0 mi West 15.0 mph 20.7 mph 0.01 in Rain Light Rain
5:16 AM 42.8 °F 36.2 °F 39.2 °F 87% 29.47 in 6.0 mi West 12.7 mph 20.7 mph 0.01 in Rain Light Rain
5:28 AM 42.8 °F 35.4 °F 39.2 °F 87% 29.47 in 6.0 mi West 15.0 mph - 0.01 in Rain Light Rain
5:35 AM 42.8 °F 35.8 °F 39.2 °F 87% 29.47 in 7.0 mi West 13.8 mph - 0.01 in Rain Light Rain
5:53 AM 42.1 °F 34.9 °F 39.0 °F 89% 29.50 in 6.0 mi West 13.8 mph - 0.01 in Rain Light Rain
6:05 AM 42.8 °F 34.8 °F 39.2 °F 87% 29.48 in 4.0 mi West 17.3 mph - 0.00 in Rain Light Rain
6:25 AM 42.8 °F 35.8 °F 39.2 °F 87% 29.48 in 10.0 mi West 13.8 mph - 0.01 in Rain Light Rain
6:32 AM 42.8 °F 36.2 °F 39.2 °F 87% 29.48 in 10.0 mi West 12.7 mph - 0.01 in Rain Light Rain
6:45 AM 42.8 °F 36.2 °F 39.2 °F 87% 29.48 in 10.0 mi West 12.7 mph - 0.01 in Rain Light Rain
6:53 AM 42.1 °F 35.2 °F 39.0 °F 89% 29.51 in 10.0 mi West 12.7 mph - 0.01 in Rain Light Rain
7:01 AM 42.8 °F 36.2 °F 39.2 °F 87% 29.49 in 10.0 mi West 12.7 mph - 0.01 in Rain Light Rain
7:26 AM 42.8 °F 37.0 °F 39.2 °F 87% 29.49 in 10.0 mi West 10.4 mph - 0.01 in Rain Light Rain
7:41 AM 42.8 °F 37.0 °F 39.2 °F 87% 29.49 in 10.0 mi West 10.4 mph - 0.01 in Rain Light Rain
7:53 AM 42.1 °F 36.6 °F 39.9 °F 92% 29.52 in 10.0 mi West 9.2 mph - 0.01 in Rain Light Rain
8:08 AM 42.8 °F 36.6 °F 39.2 °F 87% 29.50 in 10.0 mi West 11.5 mph - 0.00 in Rain Light Rain
8:53 AM 42.1 °F 35.2 °F 39.0 °F 89% 29.54 in 10.0 mi West 12.7 mph - 0.01 in Rain Light Rain
9:17 AM 42.8 °F 36.2 °F 39.2 °F 87% 29.52 in 10.0 mi West 12.7 mph - 0.00 in   Overcast
9:29 AM 42.8 °F 35.1 °F 39.2 °F 87% 29.52 in 10.0 mi West 16.1 mph - 0.00 in Rain Light Rain
9:53 AM 43.0 °F 36.8 °F 39.0 °F 86% 29.55 in 10.0 mi West 11.5 mph - 0.00 in Rain Light Rain
10:53 AM 42.1 °F 34.5 °F 37.9 °F 85% 29.56 in 10.0 mi West 15.0 mph - 0.01 in Rain Light Rain
11:29 AM 44.6 °F 37.4 °F 39.2 °F 81% 29.54 in 10.0 mi West 16.1 mph - 0.00 in   Overcast
11:53 AM 44.1 °F 37.7 °F 37.9 °F 79% 29.57 in 10.0 mi WSW 12.7 mph 23.0 mph 0.00 in   Overcast
12:01 PM 42.8 °F 35.1 °F 37.4 °F 81% 29.54 in 10.0 mi West 16.1 mph - 0.00 in Rain Light Rain
12:53 PM 44.1 °F 36.8 °F 37.0 °F 76% 29.56 in 10.0 mi West 16.1 mph - 0.00 in Rain Light Rain
1:11 PM 42.8 °F 34.8 °F 37.4 °F 81% 29.54 in 7.0 mi West 17.3 mph - 0.00 in Rain Light Rain
1:53 PM 44.1 °F 37.1 °F 39.0 °F 82% 29.56 in 10.0 mi West 15.0 mph - 0.01 in Rain Light Rain
2:53 PM 43.0 °F 35.4 °F 37.9 °F 82% 29.56 in 10.0 mi West 16.1 mph - 0.00 in Rain Light Rain
3:40 PM 44.6 °F 37.8 °F 37.4 °F 76% 29.54 in 10.0 mi West 15.0 mph - 0.00 in Rain Light Rain
3:53 PM 44.1 °F 36.8 °F 37.9 °F 79% 29.57 in 10.0 mi West 16.1 mph 21.9 mph 0.00 in Rain Light Rain
4:25 PM 44.6 °F 37.4 °F 37.4 °F 76% 29.55 in 10.0 mi West 16.1 mph - 0.00 in Rain Light Rain
4:53 PM 44.1 °F 37.7 °F 37.9 °F 79% 29.58 in 10.0 mi West 12.7 mph - 0.00 in Rain Light Rain
5:53 PM 43.0 °F 36.0 °F 37.0 °F 80% 29.60 in 10.0 mi West 13.8 mph 21.9 mph 0.00 in Rain Light Rain
6:53 PM 42.1 °F 34.9 °F 37.9 °F 85% 29.62 in 10.0 mi West 13.8 mph - 0.01 in Rain Light Rain
7:53 PM 42.1 °F 34.9 °F 37.9 °F 85% 29.64 in 10.0 mi West 13.8 mph - 0.02 in Rain Light Rain
8:53 PM 42.1 °F 35.2 °F 37.9 °F 85% 29.64 in 10.0 mi West 12.7 mph - 0.01 in Rain Light Rain
9:53 PM 42.1 °F 34.9 °F 36.0 °F 79% 29.65 in 10.0 mi West 13.8 mph - 0.01 in Rain Light Rain
10:24 PM 42.8 °F 35.8 °F 35.6 °F 76% 29.62 in 10.0 mi West 13.8 mph - 0.00 in Rain Light Rain
10:53 PM 42.1 °F 35.2 °F 36.0 °F 79% 29.65 in 10.0 mi West 12.7 mph 20.7 mph 0.00 in Rain Light Rain
11:53 PM 41.0 °F 32.8 °F 35.1 °F 79% 29.65 in 10.0 mi West 16.1 mph - N/A   Overcast